Volver al catálogo

INTELSAT 504

ActivoComunicacionesGEO
NORAD 13083·PAYLOAD· XX

Lanzado Mar 5, 1982 desde Cape Canaveral Space Force Station

Loading…

TLE

ActualizadoSource: Space-Track

Época: Sep 14, 2026, 13:13 UTC

1 13083U 82017A   26257.55119284 -.00000255  00000-0  00000-0 0  9993
2 13083  11.2510 327.0126 0016134 220.5512 169.2024  0.99229344142643

Sigue INTELSAT 504 en tiempo real con AllMySat

Download on the App Store